Date String (YYYY-MM-DD hh:mm:ss) UTC,Instrument flags,absolute air pressure of the measurement (hPa),sample flow rate (lpm),inlet stack bypass flow (lpm),air temperature of the measurement (°C),ambient temperature measured by the external sensor (°C),aerosol sample conditioner tube jacket temperature (°C),OPC LED temperature (°C),internal box temperature (°C),relative humidity of the measurement (%),span deviation,mass concentration of particles derived from Lorenz-Mie calculation of OPC scattering (μg/m³),mass concentration of particles derived from Lorenz-Mie calculation of OPC scattering (μg/m³),mass concentration of particles derived from Lorenz-Mie calculation of OPC scattering (μg/m³)
DateTimeUTC,F1_M11,P_M11,Q1_M11,Q2_M11,T1_M11,T2_M11,T3_M11,T4_M11,T5_M11,U1_M11,ZSPAN_M11,X0_M11,X2_M11,X1_M11
2024-04-19 07:00:00,SystemResetWarning,0833.4,4.99,000.00,019.5,019.0,000.0,028.0,021.3,024.8,0000.0,0008.46,0005.97,0005.66
2024-04-19 07:01:00,SystemResetWarning,0833.4,5.01,000.00,019.5,019.0,000.0,028.0,021.3,024.8,0000.0,0008.46,0005.96,0005.65
2024-04-19 07:02:00,SystemResetWarning,0833.4,5.01,000.00,019.5,019.0,000.0,028.0,021.3,024.7,0000.0,0008.46,0005.97,0005.65
2024-04-19 07:03:00,SystemResetWarning,0833.4,4.99,000.00,019.5,019.0,000.0,028.0,021.3,024.7,0000.0,0008.37,0005.95,0005.64
2024-04-19 07:04:00,SystemResetWarning,0833.5,5.00,000.00,019.5,019.0,000.0,028.0,021.3,024.7,0000.0,0008.18,0005.88,0005.60
2024-04-19 07:05:00,SystemResetWarning,0833.4,5.00,000.00,019.5,019.0,000.0,028.0,021.3,024.7,0000.0,0008.10,0005.83,0005.56
2024-04-19 07:06:00,SystemResetWarning,0833.4,5.00,000.00,019.5,019.0,000.0,028.0,021.3,024.7,0000.0,0008.06,0005.80,0005.54
2024-04-19 07:07:00,SystemResetWarning,0833.4,5.00,000.00,019.5,019.0,000.0,028.0,021.3,024.7,0000.0,0008.05,0005.78,0005.51
2024-04-19 07:08:00,SystemResetWarning,0833.4,4.99,000.00,019.5,019.0,000.0,028.0,021.3,024.7,0000.0,0008.03,0005.74,0005.46
2024-04-19 07:09:00,SystemResetWarning,0833.4,5.01,000.00,019.5,019.0,000.0,028.0,021.3,024.9,0000.0,0007.89,0005.68,0005.43
2024-04-19 07:10:00,SystemResetWarning,0833.4,5.01,000.00,019.5,019.0,000.0,028.0,021.3,024.9,0000.0,0007.66,0005.67,0005.41
2024-04-19 07:11:00,SystemResetWarning,0833.4,5.00,000.00,019.5,019.0,000.0,028.0,021.3,024.8,0000.0,0007.47,0005.66,0005.39
2024-04-19 07:12:00,SystemResetWarning,0833.4,5.00,000.00,019.5,019.0,000.0,028.0,021.3,024.8,0000.0,0007.46,0005.64,0005.36
2024-04-19 07:13:00,SystemResetWarning,0833.4,5.00,000.00,019.6,019.0,000.0,028.0,021.3,024.8,0000.0,0007.46,0005.61,0005.33
2024-04-19 07:14:00,SystemResetWarning,0833.4,5.01,000.00,019.6,019.1,000.0,028.0,021.3,024.8,0000.0,0007.55,0005.56,0005.28
2024-04-19 07:15:00,SystemResetWarning,0833.4,5.00,000.00,019.6,019.1,000.0,028.0,021.3,024.7,0000.0,0007.60,0005.56,0005.27
2024-04-19 07:16:00,SystemResetWarning,0833.4,5.00,000.00,019.6,019.1,000.0,028.0,021.4,024.7,0000.0,0007.80,0005.53,0005.24
2024-04-19 07:17:00,SystemResetWarning,0833.4,5.00,000.00,019.6,019.0,000.0,028.0,021.3,024.6,0000.0,0007.92,0005.50,0005.21
2024-04-19 07:18:00,SystemResetWarning,0833.3,5.00,000.00,019.6,019.0,000.0,028.0,021.3,024.7,0000.0,0007.90,0005.46,0005.17
2024-04-19 07:19:00,SystemResetWarning,0833.3,5.00,000.00,019.6,019.0,000.0,028.0,021.3,024.7,0000.0,0007.85,0005.41,0005.13
2024-04-19 07:20:00,SystemResetWarning,0833.2,5.01,000.00,019.6,019.0,000.0,028.0,021.3,024.7,0000.0,0007.87,0005.40,0005.11
2024-04-19 07:21:00,SystemResetWarning,0833.3,4.99,000.00,019.6,019.1,000.0,028.0,021.4,024.7,0000.0,0007.80,0005.37,0005.10
2024-04-19 07:22:00,SystemResetWarning,0833.3,4.99,000.00,019.6,019.1,000.0,028.0,021.4,024.6,0000.0,0007.73,0005.31,0005.06
2024-04-19 07:23:00,SystemResetWarning,0833.3,5.00,000.00,019.6,019.1,000.0,028.0,021.4,024.6,0000.0,0007.68,0005.26,0005.01
2024-04-19 07:24:00,SystemResetWarning,0833.3,5.00,000.00,019.6,019.1,000.0,028.0,021.4,024.6,0000.0,0007.56,0005.18,0004.96
2024-04-19 07:25:00,SystemResetWarning,0833.3,5.02,000.00,019.6,019.1,000.0,028.1,021.4,024.6,0000.0,0007.37,0005.13,0004.92
2024-04-19 07:26:00,SystemResetWarning,0833.3,4.99,000.00,019.6,019.1,000.0,028.1,021.4,024.6,0000.0,0007.30,0005.09,0004.88
2024-04-19 07:27:00,SystemResetWarning,0833.2,4.99,000.00,019.6,019.1,000.0,028.1,021.4,024.7,0000.0,0006.80,0005.05,0004.85
2024-04-19 07:28:00,SystemResetWarning,0833.2,5.00,000.00,019.6,019.1,000.0,028.1,021.4,024.7,0000.0,0006.51,0005.03,0004.84
2024-04-19 07:29:00,SystemResetWarning,0833.2,5.02,000.00,019.6,019.1,000.0,028.1,021.4,025.3,0000.0,0006.49,0005.02,0004.83
2024-04-19 07:30:00,SystemResetWarning,0833.3,4.99,000.00,019.6,019.1,000.0,028.1,021.4,025.5,0000.0,0006.49,0005.02,0004.83
2024-04-19 07:31:00,SystemResetWarning,0833.3,4.99,000.00,019.6,019.1,000.0,028.1,021.4,024.9,0000.0,0006.48,0005.00,0004.81
2024-04-19 07:32:00,SystemResetWarning,0833.2,5.00,000.00,019.6,019.1,000.0,028.1,021.4,024.8,0000.0,0006.68,0004.97,0004.77
2024-04-19 07:33:00,SystemResetWarning,0833.3,5.00,000.00,019.6,019.1,000.0,028.1,021.4,024.7,0000.0,0006.67,0004.94,0004.74
2024-04-19 07:34:00,SystemResetWarning,0833.2,5.00,000.00,019.6,019.1,000.0,028.1,021.4,024.7,0000.0,0006.58,0004.92,0004.73
2024-04-19 07:35:00,SystemResetWarning,0833.2,5.01,000.00,019.6,019.1,000.0,028.1,021.4,024.8,0000.0,0006.58,0004.93,0004.73
2024-04-19 07:36:00,SystemResetWarning,0833.2,5.00,000.00,019.6,019.1,000.0,028.1,021.4,024.8,0000.0,0006.67,0004.95,0004.75
2024-04-19 07:37:00,SystemResetWarning,0833.2,4.99,000.00,019.6,019.1,000.0,028.1,021.4,024.8,0000.0,0006.74,0004.98,0004.78
2024-04-19 07:38:00,SystemResetWarning,0833.2,4.99,000.00,019.6,019.1,000.0,028.1,021.4,024.8,0000.0,0006.86,0005.02,0004.80
2024-04-19 07:39:00,SystemResetWarning,0833.2,5.00,000.00,019.6,019.1,000.0,028.1,021.4,024.8,0000.0,0006.82,0005.02,0004.80
2024-04-19 07:40:00,SystemResetWarning,0833.2,5.01,000.00,019.6,019.1,000.0,028.1,021.4,024.8,0000.0,0006.83,0005.03,0004.81
2024-04-19 07:41:00,SystemResetWarning,0833.1,5.01,000.00,019.6,019.1,000.0,028.1,021.4,024.8,0000.0,0006.97,0005.05,0004.82
2024-04-19 07:42:00,SystemResetWarning,0833.2,5.01,000.00,019.6,019.1,000.0,028.1,021.4,024.7,0000.0,0007.27,0005.07,0004.82
2024-04-19 07:43:00,SystemResetWarning,0833.3,5.01,000.00,019.6,019.1,000.0,028.1,021.4,024.7,0000.0,0007.02,0005.05,0004.81
2024-04-19 07:44:00,SystemResetWarning,0833.1,5.00,000.00,019.6,019.1,000.0,028.1,021.4,024.6,0000.0,0007.00,0005.04,0004.80
2024-04-19 07:45:00,SystemResetWarning,0833.2,5.00,000.00,019.6,019.1,000.0,028.1,021.4,024.6,0000.0,0007.00,0005.04,0004.80
2024-04-19 07:46:00,SystemResetWarning,0833.2,5.00,000.00,019.6,019.1,000.0,028.1,021.4,024.6,0000.0,0006.95,0005.02,0004.80
2024-04-19 07:47:00,SystemResetWarning,0833.2,4.99,000.00,019.6,019.1,000.0,028.1,021.4,024.6,0000.0,0006.89,0005.01,0004.79
2024-04-19 07:48:00,SystemResetWarning,0833.2,5.00,000.00,019.6,019.1,000.0,028.1,021.4,024.6,0000.0,0006.95,0005.00,0004.78
2024-04-19 07:49:00,SystemResetWarning,0833.2,5.00,000.00,019.6,019.1,000.0,028.1,021.4,024.7,0000.0,0007.01,0005.00,0004.76
2024-04-19 07:50:00,SystemResetWarning,0833.2,5.00,000.00,019.6,019.1,000.0,028.1,021.4,024.6,0000.0,0007.13,0005.02,0004.76
2024-04-19 07:51:00,SystemResetWarning,0833.2,5.01,000.00,019.6,019.1,000.0,028.1,021.4,024.7,0000.0,0007.12,0005.01,0004.74
2024-04-19 07:52:00,SystemResetWarning,0833.2,5.00,000.00,019.6,019.1,000.0,028.1,021.4,024.7,0000.0,0006.88,0004.96,0004.71
2024-04-19 07:53:00,SystemResetWarning,0833.2,5.00,000.00,019.6,019.1,000.0,028.1,021.4,024.6,0000.0,0006.56,0004.93,0004.70
2024-04-19 07:54:00,SystemResetWarning,0833.4,5.00,000.00,019.6,019.1,000.0,028.1,021.4,024.6,0000.0,0006.56,0004.93,0004.71
2024-04-19 07:55:00,SystemResetWarning,0833.3,5.00,000.00,019.7,019.1,000.0,028.1,021.4,024.6,0000.0,0006.60,0004.94,0004.72
2024-04-19 07:56:00,SystemResetWarning,0833.2,5.00,000.00,019.7,019.1,000.0,028.1,021.5,024.7,0000.0,0006.71,0004.96,0004.72
2024-04-19 07:57:00,SystemResetWarning,0833.1,5.00,000.00,019.7,019.1,000.0,028.1,021.4,024.6,0000.0,0006.76,0004.96,0004.71
2024-04-19 07:58:00,SystemResetWarning,0833.0,5.01,000.00,019.7,019.2,000.0,028.1,021.5,024.6,0000.0,0006.76,0004.95,0004.67
2024-04-19 07:59:00,SystemResetWarning,0833.0,5.00,000.00,019.7,019.2,000.0,028.1,021.5,024.7,0000.0,0006.63,0004.91,0004.64
